THORAD AGENA D DEB, 42532

Orbit data source: Space-Track

THORAD AGENA D DEB, 42532 is space debris in SSO originally from a launch on Wed, 08 Apr 1970 UTC launched from the Air Force Western Test Range (AFWTR). Debris objects in space refer to the collection of defunct objects orbiting the Earth. Examples of debris include non-operational satellites, rocket bodies, and fragments generated from explosions, collisions, or faulty payload assembly.

Loading next visibility...
Identifier
42532, 1970-025SN
Orbit
SSO
Country
Flag of USUS
Related business
Manufacturer
Unknown
Mission
Spacecraft
Bus & Motor
Unknown
Mass
Unknown
Launch date (UTC)
1970-04-08 (55 years ago)
Launch vehicle
Unknown
Launch site
Air Force Western Test Range (AFWTR)
Object type
Payload
Rocket body
Debris
Shape & HBR
Unknown
Radar Cross Section
Small (<0.1 m²)

Expand to show TLE details & history
Last TLE update: 2 days ago

TLE from 2 days ago
0 THORAD AGENA D DEB
1 42532U 70025SN  25258.03636794  .00002035  00000-0  13799-2 0  9991
2 42532  99.9273 169.8922 0003661  14.7224 345.4045 14.01516931601115
Epoch: 2025-09-15T00:52Z
TLE epoch observation values (Epoch: 2025-09-15T00:52:22.189Z)
Latitude
0.00003°
Longitude
162.55295°
Altitude
888.82 km
Speed
7.409 km/s
True Right ascension
11h 19m 34s
True Declination
0° 00' 00"
Sunlit
Object was in daylight at epoch
Visualization orbit readout
Latitude
Unknown
Longitude
Unknown
Altitude
Unknown
Speed
Unknown
Apparent Right ascension
Unknown
Apparent Declination
Unknown
Sunlit
N/A
Visualization observer readout
Local Sidereal Time
02:55:38
Azimuth
Unknown
Elevation
Unknown
Doppler factor
Unknown
Orbital elements
Apogee altitude
888.451 km
Perigee altitude
883.133 km
Semi-major axis
7,263.929 km
Eccentricity
0.00037
Inclination
99.9273°
RAAN
169.8922°
Arg. of periapsis
14.7224°
True anomaly
345.39392°
Mean anomaly
345.4045°
Eccentric anomaly
345.39921°
Mean motion
3.50579 °/min
Orbital period
102.69 mins
BSTAR
0.0013799
Loading maneuver chart data...
Computing Atmospheric mass density...

Documentation

Showing up to 5 results
|